Fairbanks Eiels, AK

3:13 AM AKDT on June 27, 2017 (GMT -0800)
Eielson Air Force Base

Weather History for PAEI - September, 2013

Change the Weather History Date:

Friday, September 20, 2013

  Actual Average Record
Temperature  
Mean Temperature 30 °F -  
Max Temperature 36 °F 50 °F 67 °F (1951)
Min Temperature 24 °F 35 °F 19 °F (1954)
Degree Days  
Heating Degree Days 36    
Moisture  
Dew Point 25 °F    
Average Humidity 88    
Maximum Humidity 100    
Minimum Humidity 55    
Precipitation  
Precipitation 0.00 in - - ()
Sea Level Pressure  
Sea Level Pressure 29.46 in    
Wind  
Wind Speed 1 mph (SE)    
Max Wind Speed 7 mph    
Max Gust Speed -    
Visibility 7 miles    
Events Fog    
Averages and records for this station are not official NWS values.
T = Trace of Precipitation, MM = Missing Value Source: NWS Daily Summary

Daily Weather History Graph

Daily Weather History Graph

Search for Another Location

Airport or City:

Trip Planner

Search our weather history database for the weather conditions in past years. The results will help you decide how hot, cold, wet, or windy it might be!

Date:

Astronomy

Sep. 20, 2013 Rise Set
Actual Time 7:26 AM AKDT 7:54 PM AKDT
Civil Twilight 6:37 AM AKDT 8:43 PM AKDT
Nautical Twilight 5:36 AM AKDT 9:43 PM AKDT
Astronomical Twilight 4:25 AM AKDT 10:54 PM AKDT
Moon 7:39 PM AKDT (9/20) 9:39 AM AKDT (9/20)
Length of Visible Light 14h 06m
Length of Day
12h 28m
Full, 98% of the Moon is Illuminated
Sep 20
Full
Sep 26
Last Quarter
Oct 4
New
Oct 11
First Quarter
Oct 18
Full

Hourly Weather History & Observations

Time (AKDT) Temp. Windchill Dew Point Humidity Pressure Visibility Wind Dir Wind Speed Gust Speed Precip Events Conditions
12:13 AM 24.8 °F - 23.0 °F 93% 29.58 in 10.0 mi Calm Calm - N/A   Mostly Cloudy
12:28 AM 26.6 °F 19.1 °F 23.0 °F 86% 29.59 in 10.0 mi ESE 6.9 mph - N/A   Overcast
12:58 AM 26.8 °F - 24.8 °F 92% 29.61 in 10.0 mi South 2.3 mph - N/A   Overcast
1:58 AM 26.6 °F 22.6 °F 24.8 °F 93% 29.60 in 10.0 mi South 3.5 mph - N/A   Overcast
2:28 AM 26.6 °F 22.6 °F 24.8 °F 93% 29.56 in 10.0 mi Variable 3.5 mph - N/A   Overcast
2:43 AM 24.8 °F 19.1 °F 23.0 °F 93% 29.56 in 10.0 mi Variable 4.6 mph - N/A   Overcast
2:58 AM 25.5 °F 21.3 °F 23.9 °F 94% 29.58 in 10.0 mi Variable 3.5 mph - N/A   Overcast
3:58 AM 25.3 °F - 23.9 °F 94% 29.58 in 10.0 mi Calm Calm - N/A   Overcast
4:58 AM 25.3 °F - 23.9 °F 94% 29.57 in 10.0 mi Calm Calm - N/A   Overcast
5:02 AM 24.8 °F - 24.8 °F 100% 29.53 in 10.0 mi Calm Calm - N/A   Overcast
5:17 AM 26.6 °F - 26.6 °F 100% 29.53 in 2.5 mi Variable 2.3 mph - N/A   Overcast
5:32 AM 26.6 °F - 26.6 °F 100% 29.53 in 4.0 mi Calm Calm - N/A   Overcast
5:47 AM 26.6 °F - 26.6 °F 100% 29.52 in 1.8 mi Calm Calm - N/A   Overcast
5:58 AM 27.1 °F - 26.2 °F 96% 29.56 in 1.2 mi Calm Calm - N/A   Overcast
6:13 AM 26.6 °F - 26.6 °F 100% 29.52 in 0.5 mi Variable 1.2 mph - N/A Fog Light Freezing Fog
6:58 AM 27.3 °F - 26.2 °F 96% 29.54 in 0.2 mi NNE 2.3 mph - N/A Fog Light Freezing Fog
7:58 AM 27.0 °F - 25.7 °F 95% 29.54 in 0.2 mi Calm Calm - N/A Fog Light Freezing Fog
8:28 AM 26.6 °F - 26.6 °F 100% 29.50 in 0.2 mi Calm Calm - N/A Fog Light Freezing Fog
8:41 AM 26.6 °F - 26.6 °F 100% 29.50 in 0.5 mi Calm Calm - N/A Fog Light Freezing Fog
8:58 AM 27.1 °F - 25.9 °F 95% 29.53 in 0.5 mi Calm Calm - 0.00 in Fog Light Freezing Fog
9:58 AM 27.1 °F - 25.9 °F 95% 29.51 in 0.8 mi Calm Calm - N/A   Mist
10:13 AM 26.6 °F - 26.6 °F 100% 29.47 in 1.0 mi Calm Calm - N/A   Mist
10:34 AM 28.4 °F - 26.6 °F 93% 29.47 in 1.5 mi Calm Calm - N/A   Mist
10:43 AM 28.4 °F - 26.6 °F 93% 29.47 in 2.0 mi Calm Calm - N/A   Partly Cloudy
10:58 AM 28.4 °F - 27.3 °F 96% 29.49 in 2.5 mi Calm Calm - N/A   Overcast
11:19 AM 28.4 °F - 28.4 °F 100% 29.46 in 3.0 mi Calm Calm - N/A   Overcast
11:58 AM 29.3 °F - 28.2 °F 96% 29.48 in 4.0 mi Calm Calm - N/A   Overcast
12:28 PM 30.2 °F - 28.4 °F 93% 29.44 in 10.0 mi Calm Calm - N/A   Overcast
12:43 PM 32.0 °F - 28.4 °F 87% 29.44 in 10.0 mi Calm Calm - N/A   Overcast
12:58 PM 31.5 °F - 28.4 °F 88% 29.46 in 10.0 mi Variable 2.3 mph - N/A   Overcast
1:28 PM 32.0 °F 27.5 °F 26.6 °F 80% 29.42 in 10.0 mi NW 4.6 mph - N/A   Overcast
1:58 PM 32.7 °F 28.3 °F 27.3 °F 81% 29.45 in 10.0 mi Variable 4.6 mph - N/A   Overcast
2:58 PM 33.8 °F - 26.2 °F 74% 29.43 in 10.0 mi Calm Calm - N/A   Overcast
3:58 PM 34.3 °F - 24.6 °F 68% 29.39 in 10.0 mi Calm Calm - N/A   Overcast
4:58 PM 35.4 °F - 22.6 °F 60% 29.35 in 10.0 mi ENE 1.2 mph - N/A   Scattered Clouds
5:58 PM 35.2 °F - 22.3 °F 59% 29.34 in 10.0 mi South 2.3 mph - N/A   Clear
6:58 PM 35.1 °F - 20.3 °F 55% 29.32 in 10.0 mi Calm Calm - N/A   Clear
7:28 PM 32.0 °F - 21.2 °F 64% 29.28 in 10.0 mi Calm Calm - N/A   Overcast
7:58 PM 31.8 °F - 22.8 °F 69% 29.31 in 10.0 mi Calm Calm - N/A   Overcast
8:58 PM 30.2 °F - 22.3 °F 72% 29.28 in 10.0 mi Calm Calm - N/A   Overcast
9:43 PM 30.2 °F - 23.0 °F 75% 29.23 in 10.0 mi Calm Calm - N/A   Overcast
9:58 PM 29.3 °F - 23.2 °F 78% 29.25 in 10.0 mi Calm Calm - N/A   Overcast
10:58 PM 27.7 °F - 22.3 °F 80% 29.24 in 10.0 mi Calm Calm - N/A   Partly Cloudy
11:58 PM 25.0 °F - 22.3 °F 89% 29.23 in 10.0 mi Calm Calm - N/A   Clear